This demonstration page uses our WeatherBlox Daily Observations layout. Learn more.

Left ArrowRight Arrow

40.92945, -100.16068

Hourly Observations for April 22, 2019

Temp ( °F °C ) Dew Point ( °F °C ) Humidity (%) Winds ( mph kmh ) Pressure ( in mb ) Visibility ( mi km ) Precip ( " mm )
12:15 am 00:15 Cloudy 59 15.2 50 10.1 72 72 NNW 13 20 29.81 1010 10 16 0.00 0.00
12:35 am 00:35 Cloudy 58 14.6 50 10 74 74 NNW 16 26 29.81 1009 10 16 0.00 0.00
12:55 am 00:55 Cloudy 58 14.2 49 9.7 75 75 NNW 20 31 29.81 1010 10 16 0.00 0.00
1:15 am 01:15 Cloudy 57 14 49 9.6 75 75 NNW 15 24 29.81 1010 10 16 0.00 0.00
1:35 am 01:35 Cloudy 57 13.8 49 9.5 75 75 NNW 22 35 29.83 1010 10 16 0.00 0.00
1:55 am 01:55 Cloudy 57 13.8 49 9.3 74 74 NNW 17 28 29.84 1010 10 16 0.00 0.00
2:15 am 02:15 Cloudy 57 13.8 48 9.1 73 73 NNW 21 33 29.85 1011 10 16 0.00 0.00
2:35 am 02:35 Cloudy 56 13.5 48 9 74 74 NNW 20 31 29.86 1011 10 16 0.00 0.00
2:55 am 02:55 Cloudy 56 13.5 48 8.8 73 73 NNW 21 33 29.87 1011 10 16 0.00 0.00
3:15 am 03:15 Cloudy 55 13 47 8.5 74 74 NNW 18 30 29.89 1012 10 16 0.00 0.00
3:35 am 03:35 Cloudy 55 13 48 8.7 75 75 NNW 25 41 29.90 1013 10 16 0.00 0.00
3:55 am 03:55 Cloudy 55 12.5 47 8.5 77 77 NNW 18 30 29.92 1013 10 16 0.00 0.00
4:15 am 04:15 Cloudy 53 11.5 46 7.8 78 78 NW 20 31 29.95 1014 10 16 0.00 0.00
4:35 am 04:35 Cloudy 51 10.8 45 7 78 78 NNW 18 30 29.96 1015 10 16 0.00 0.00
4:55 am 04:55 Cloudy 51 10.4 44 6.5 77 77 NNW 21 33 29.98 1015 10 16 0.00 0.00
5:15 am 05:15 Cloudy 50 10 43 6.2 77 77 NNW 21 33 29.99 1016 10 16 0.00 0.00
5:35 am 05:35 Cloudy 50 10 43 6.1 77 77 NNW 17 28 29.99 1016 10 16 0.00 0.00
5:55 am 05:55 Cloudy 50 10 43 6.1 77 77 NNW 17 28 29.99 1016 10 16 0.00 0.00
6:15 am 06:15 Cloudy 50 10 43 6.3 78 78 NNW 20 31 30.00 1016 10 16 0.00 0.00
6:35 am 06:35 Cloudy 50 9.9 43 6.3 79 79 NNW 20 31 30.01 1016 10 16 0.00 0.00
6:55 am 06:55 Cloudy 49 9.6 43 5.9 78 78 NNW 20 31 30.02 1017 10 16 0.00 0.00
7:15 am 07:15 Cloudy 49 9.5 42 5.8 78 78 NNW 17 28 30.04 1017 10 16 0.00 0.00
7:35 am 07:35 Cloudy 49 9.5 42 5.6 77 77 NNW 21 33 30.05 1017 10 16 0.00 0.00
7:55 am 07:55 Cloudy 49 9.5 42 5.5 76 76 NNW 23 37 30.05 1017 10 16 0.00 0.00
8:15 am 08:15 Cloudy 49 9.5 42 5.4 76 76 N 18 30 30.06 1018 10 16 0.00 0.00
8:35 am 08:35 Cloudy 49 9.5 42 5.3 75 75 NNW 21 33 30.07 1018 10 16 0.00 0.00
8:55 am 08:55 Cloudy 49 9.6 41 5.1 74 74 N 21 33 30.06 1018 10 16 0.00 0.00
9:15 am 09:15 Cloudy 50 10.1 41 5.2 72 72 N 24 39 30.06 1018 10 16 0.00 0.00
9:35 am 09:35 Cloudy 50 10 41 5.2 72 72 NNW 20 31 30.08 1019 10 16 0.00 0.00
9:55 am 09:55 Cloudy 50 10 42 5.3 73 73 N 17 28 30.09 1019 10 16 0.00 0.00
10:15 am 10:15 Cloudy 51 10.3 42 5.3 71 71 N 20 31 30.10 1019 10 16 0.00 0.00
10:35 am 10:35 Cloudy 51 10.7 42 5.5 71 71 N 17 28 30.09 1019 10 16 0.00 0.00
10:55 am 10:55 Cloudy 52 11 42 5.6 70 70 N 21 33 30.10 1019 10 16 0.00 0.00
11:15 am 11:15 Cloudy 52 11.2 42 5.6 69 69 N 15 24 30.11 1020 10 16 0.00 0.00
11:35 am 11:35 Cloudy 53 11.6 40 4.3 61 61 N 20 31 30.11 1020 10 16 0.00 0.00
11:55 am 11:55 Cloudy 54 12 39 3.8 58 58 N 17 28 30.11 1020 10 16 0.00 0.00
12:15 pm 12:15 Cloudy 54 12.2 35 1.7 49 49 N 22 35 30.11 1020 10 16 0.00 0.00
12:35 pm 12:35 Cloudy 55 13 36 2.1 48 48 N 20 31 30.10 1019 10 16 0.00 0.00
12:55 pm 12:55 Cloudy 57 14 35 1.8 44 44 N 20 31 30.09 1019 10 16 0.00 0.00
1:15 pm 13:15 Cloudy 58 14.7 33 0.6 38 38 N 21 33 30.09 1019 10 16 0.00 0.00
1:35 pm 13:35 Cloudy 60 15.8 33 0.8 36 36 N 21 33 30.08 1019 10 16 0.00 0.00
1:55 pm 13:55 Cloudy 61 16.3 34 1 36 36 NNW 23 37 30.06 1018 10 16 0.00 0.00
2:15 pm 14:15 Cloudy 62 16.4 33 0.7 35 35 N 20 31 30.07 1018 10 16 0.00 0.00
2:35 pm 14:35 Cloudy 62 16.7 33 0.8 34 34 N 21 33 30.07 1018 10 16 0.00 0.00
2:55 pm 14:55 Cloudy 62 16.7 34 1.1 35 35 NNW 21 33 30.08 1019 10 16 0.00 0.00
3:15 pm 15:15 Cloudy 63 17.1 34 1.1 34 34 N 20 31 30.08 1019 10 16 0.00 0.00
3:35 pm 15:35 Mostly Cloudy 64 17.5 33 0.8 33 33 NNW 22 35 30.07 1018 10 16 0.00 0.00
3:55 pm 15:55 Partly Cloudy 65 18.1 32 0.2 30 30 N 21 33 30.06 1018 10 16 0.00 0.00
4:15 pm 16:15 Partly Cloudy 64 17.9 31 -0.4 29 29 N 21 33 30.06 1018 10 16 0.00 0.00
4:35 pm 16:35 Mostly Cloudy 63 17.3 32 -0.1 31 31 N 18 30 30.08 1018 10 16 0.00 0.00
4:55 pm 16:55 Mostly Cloudy 63 17 33 0.5 33 33 NNW 21 33 30.08 1019 7 11 0.00 0.00
5:15 pm 17:15 Cloudy 61 16.2 33 0.4 34 34 N 18 30 30.09 1019 10 16 0.00 0.00
5:35 pm 17:35 Partly Cloudy 62 16.7 32 0.2 33 33 N 20 31 30.08 1019 10 16 0.00 0.00
5:55 pm 17:55 Sunny 62 16.7 32 0.2 33 33 N 16 26 30.09 1019 10 16 0.00 0.00
6:15 pm 18:15 Partly Cloudy 62 16.7 33 0.6 34 34 N 15 24 30.09 1019 10 16 0.00 0.00
6:35 pm 18:35 Partly Cloudy 62 16.6 33 0.4 34 34 N 13 20 30.09 1019 10 16 0.00 0.00
6:55 pm 18:55 Sunny 62 16.7 33 0.5 34 34 NNE 14 22 30.08 1019 10 16 0.00 0.00
7:15 pm 19:15 Sunny 62 16.4 31 -0.3 32 32 N 16 26 30.08 1019 10 16 0.00 0.00
7:35 pm 19:35 Sunny 61 16 31 -0.7 32 32 NNE 15 24 30.08 1019 10 16 0.00 0.00
7:55 pm 19:55 Sunny 59 15.1 30 -0.9 34 34 NNE 12 19 30.08 1019 10 16 0.00 0.00
8:15 pm 20:15 Sunny 57 13.7 32 0 39 39 NNE 8 13 30.11 1020 10 16 0.00 0.00
8:35 pm 20:35 Clear 54 12.3 32 0.1 43 43 N 8 13 30.13 1020 10 16 0.00 0.00
8:55 pm 20:55 Clear 52 11.2 32 0.2 47 47 NNE 8 13 30.15 1021 10 16 0.00 0.00
9:15 pm 21:15 Clear 51 10.5 33 0.4 50 50 NNE 7 11 30.17 1022 10 16 0.00 0.00
9:35 pm 21:35 Clear 47 8.1 31 -0.4 55 55 N 7 11 30.20 1023 10 16 0.00 0.00
9:55 pm 21:55 Clear 48 8.7 32 0 55 55 N 5 7 30.20 1023 10 16 0.00 0.00
10:15 pm 22:15 Clear 46 8 33 0.3 59 59 N 3 6 30.22 1023 10 16 0.00 0.00
10:35 pm 22:35 Clear 42 5.4 30 -0.9 64 64 N 8 13 30.24 1024 10 16 0.00 0.00
10:55 pm 22:55 Clear 42 5.6 31 -0.7 64 64 N 6 9 30.24 1024 10 16 0.00 0.00
11:15 pm 23:15 Clear 41 5 31 -0.4 68 68 Calm 30.25 1024 10 16 0.00 0.00
11:35 pm 23:35 Clear 43 6 33 0.6 69 69 NW 3 6 30.24 1024 10 16 0.00 0.00
11:55 pm 23:55 Clear 39 4.1 33 0.5 78 78 WNW 7 11 30.26 1025 10 16 0.00 0.00

Powered by AerisWeather